Regional Weather Roundup
Issued by NWS

Home | Current Version | Previous Version | Text Only | Print | Product List | Glossary On
Versions: 1 2 3 4 5 6 7 8 9 10 11 12 13 14 15 16 17 18 19 20 21 22 23 24 25 26 27 28 29 30 31 32 33 34 35 36 37 38 39 40 41 42 43 44 45 46 47 48 49 50
000
ASUS45 KTFX 271819
RWRMT
MONTANA HOURLY WEATHER ROUNDUP
NATIONAL WEATHER SERVICE GREAT FALLS MT
1119 AM MST SAT DEC 27 2014

NOTE: "FAIR" INDICATES FEW OR NO CLOUDS BELOW 12000 FEET WITH NO
SIGNIFICANT WEATHER AND/OR OBSTRUCTIONS TO VISIBILITY.

* THESE STATIONS ARE NOT UNDER NWS QUALITY CONTROL. THEY DO NOT
   REPORT WEATHER SUCH AS PRECIPITATION OR FOG.

MTZ001>007-043-271900-
WEST OF THE DIVIDE
CITY           SKY/WX    TMP DP  RH WIND       PRES   REMARKS
KALISPELL      LGT SNOW  27  25  92 SW6       30.09F VSB 1 3/4 WCI  20
MISSOULA       CLOUDY    27  21  78 E5        30.16F WCI  21
BUTTE          PTCLDY    12   7  80 N6        30.07F WCI   2
MULLAN PASS    LGT SNOW  21  18  88 VRB5      29.99S VSB M1/4 WCI  14
* ESSEX        N/A       23  21  92 N/A        N/A
* HAMILTON APT PTSUNNY   30  18  61 S14       30.14F WCI  19
* LIBBY APT    PTCLDY    25  21  85 CALM      30.12F
* LINCOLN      N/A       22  18  85 SW4G10     N/A
* LOOKOUT PASS N/A       23  21  92 E2G8       N/A
* POLSON       N/A       26  25  96 S1         N/A
* RONAN APT    PTSUNNY   28  27  96 SW5        N/A   WCI  22
* SEELEY LAKE  N/A       19  14  81 S1         N/A
* THOMP F APT  PTSUNNY   10   7  88 E3G10      N/A
$$

MTZ008-052>055-271900-
SOUTHWEST MONTANA
CITY           SKY/WX    TMP DP  RH WIND       PRES   REMARKS
BOZEMAN        FOG       19  18  96 E3        30.13F
DILLON         CLOUDY    19   9  65 SW17      30.12F WCI   4
* W YELLOWSTON PTSUNNY    7   2  80 W1         N/A
* THREE FORKS  PTSUNNY   19   3  49 N/A        N/A
* BOULDER HILL N/A       16   6  64 SW14       N/A   WCI   2
* MONIDA PASS  N/A        9   7  91 SE12G17    N/A   WCI  -6
* RAYNOLDS PAS N/A        8  -7  50 SE11       N/A   WCI  -7
* WHITEHALL    N/A       22  10  60 SW10G18    N/A   WCI  11
* WISE RIVER   N/A       21   9  60 NW9        N/A   WCI  11
$$

MTZ009>010-012-014-046-048-049-054-271900-
EAST SLOPES AND CENTRAL MONTANA
CITY           SKY/WX    TMP DP  RH WIND       PRES   REMARKS
CUT BANK       CLOUDY    28  18  66 W21       29.93S WCI  14
GREAT FALLS    PTCLDY    27  18  69 SW21      29.97F WCI  13
HELENA         CLOUDY    25  18  75 E9        30.08F WCI  16
MALMSTROM AFB  PTSUNNY   27  19  72 SW18      30.01F WCI  14
* CONRAD       PTCLDY    25  18  75 W6         N/A   WCI  18
* DEARBORN     N/A       29  16  58 E3G14      N/A
* EAST GLACIER N/A       24  15  68 W26G34     N/A   WCI   8
* MONARCH      N/A       21  10  62 SW14G20    N/A   WCI   8
* PENDROY      N/A       28  13  53 N/A        N/A
* ROGERS PASS  N/A       19  14  81 SE20G28    N/A   WCI   3
* SWEET GRASS  N/A       25  14  63 W11        N/A   WCI  14
* WHITE SULPH  N/A       22  10  60 S8         N/A   WCI  13
$$

MTZ011-013-016-021-035-040-045-047-050-051-271900-
NORTH CENTRAL MONTANA
CITY           SKY/WX    TMP DP  RH WIND       PRES   REMARKS
HAVRE          PTCLDY    27  18  69 SW13      29.99F WCI  16
LEWISTOWN      CLOUDY    27  16  63 W13       29.98F WCI  16
* N BAR RANCH  PTSUNNY   23  12  63 CALM      29.98F
* CHINOOK      PTCLDY    28  18  66 CALM      30.00F
* CHESTER      N/A       18  13  81 N1         N/A
* DENTON       N/A       26  15  63 W9         N/A   WCI  17
* JUDITH GAP   N/A       22  13  68 SW15       N/A   WCI   9
* LOMA         N/A       28  20  72 SW9G14     N/A   WCI  19
$$

MTZ017>020-022>027-061-062-271900-
NORTHEAST MONTANA
CITY           SKY/WX    TMP DP  RH WIND       PRES   REMARKS
GLASGOW        PTSUNNY   21  18  88 W3        30.03S
GLENDIVE       PTSUNNY   27  18  69 W10       30.03F WCI  18
JORDAN         CLOUDY    25  16  69 W9        30.04S WCI  16
SIDNEY         PTSUNNY   25  16  69 W15       30.03F WCI  13
WOLF POINT     CLOUDY    23  18  81 W12       30.03F WCI  11
* BEAVER HILL  N/A       20  15  81 SW17       N/A   WCI   5
* CIRCLE       N/A       22  18  85 SW4        N/A
* LINDSAY DVD  N/A       22  14  71 W14G21     N/A   WCI   9
* NAVAJO       N/A       20  14  77 NW12       N/A   WCI   8
* PLENTYWOOD A PTCLDY    18  14  84 W6        29.98S WCI  10
* POPLAR APT   SUNNY     21  16  81 N/A       30.02F
* SACO         N/A       23  17  78 S2         N/A
$$

MTZ028>042-056>058-271900-
SOUTHCENTRAL AND SOUTHEAST MONTANA
CITY           SKY/WX    TMP DP  RH WIND       PRES   REMARKS
BAKER          PTCLDY    25  16  69 W18       30.03S WCI  11
BILLINGS       CLOUDY    19  12  74 SW15      30.07F WCI   5
LIVINGSTON     HAZE      21   9  60 SW38G52   30.04F WCI   1
MILES CITY     CLOUDY    23  18  81 W9        30.06F WCI  13
* BIG TIMBER A CLOUDY    21   9  60 W28G40    30.01F WCI   3
* FORSYTH APT  CLOUDY    25  18  75 SW8       30.06F WCI  16
* LAUREL APT   CLOUDY    19  10  68 S6         N/A   WCI  11
* ROUNDUP APT  CLOUDY    25  14  63 N/A        N/A
* ALZADA       N/A       26  15  63 SW9        N/A   WCI  17
* HYSHAM       N/A       21  13  71 W8         N/A   WCI  11
* REED POINT   N/A       17  12  81 SE6        N/A   WCI   8
* ROSCOE HILL  N/A       19   0  43 E7         N/A   WCI  10
$$

REGIONAL REPORTS...DAKOTAS
CITY           SKY/WX    TMP DP  RH WIND       PRES   REMARKS
WILLISTON      PTSUNNY   21  14  74 W7        30.00F WCI  12
DICKINSON      PTCLDY    25  16  69 W22       29.97F WCI  10
BEACH          SUNNY     21  18  88 W15       30.00F WCI   7
CROSBY         PTCLDY    23  16  74 NW14      29.98S WCI  10
TIOGA          SUNNY     19  18  96 W17       29.98F WCI   4
WATFORD CITY   PTSUNNY   23  16  74 W17G22    29.97F WCI   9
BISMARCK       CLOUDY    25  18  75 SW7       30.05F WCI  17
GRAND FORKS    CLOUDY    12  10  92 S8        30.04F
FARGO          CLOUDY    16   9  74 SW12      30.08F WCI   3
BUFFALO SD     PTCLDY    27  18  69 W18       29.96F WCI  14
RAPID CITY     SUNNY     19   9  65 E3        30.09F
$$

REGIONAL REPORTS...WYOMING/IDAHO/WASHINGTON
CITY           SKY/WX    TMP DP  RH WIND       PRES   REMARKS
GILLETTE       PTCLDY    21  12  68 VRB3      30.03F
SHERIDAN       PTSUNNY   12   5  73 CALM      30.05F
CODY           CLOUDY    25   5  42 W6        30.02F WCI  18
YELLOWSTONE LA PTSUNNY    9   3  76 VRB6      30.11F WCI  -1
SALMON         CLOUDY    21   9  60 E3        30.23F
MULLAN PASS    LGT SNOW  21  18  88 VRB5      29.99S VSB M1/4 WCI  14
SAND POINT     LGT SNOW  32  32 100 SW5       30.14F VSB 1 3/4 WCI  27
SPOKANE        LGT SNOW  30  30 100 S6        30.11F VSB 1    WCI  24
$$

REGIONAL REPORTS...ALBERTA
CITY           SKY/WX    TMP DP  RH WIND       PRES   REMARKS
CALGARY        PTSUNNY   23  12  63 SW5       29.89S WCI  16
LETHBRIDGE     PTSUNNY   30  19  64 W10G23    29.93S WCI  21
MEDICINE HAT   PTSUNNY   27  19  72 SW8       29.95S WCI  19
EDMONTON       PTSUNNY   14  10  84 W3        29.92R
WATERTON GATE  N/A       27  16  63 SW23G32    N/A   WCI  13
CARDSTON       N/A       30  18  61 W12G18     N/A   WCI  20
MILK RIVER     N/A       27  16  63 W10        N/A   WCI  18
$$

REGIONAL REPORTS...SASKATCHEWAN
CITY           SKY/WX    TMP DP  RH WIND       PRES   REMARKS
SWIFT CURRENT  LGT SNOW  19  18  96 W5        29.91F WCI  12
REGINA         LGT SNOW  14  10  84 N8        29.99S VSB 1 1/4 WCI   3
VAL MARIE      N/A       19  18  96 S7         N/A   WCI  10
ASSINIBOIA     N/A       19  14  81 W5         N/A   WCI  12

$$



USA.gov is the U.S. government's official web portal to all federal, state and local government web resources and services.